Terug naar catalogus

AE2A

ActiefWetenschapSSO
NORAD 64591·PAYLOAD·🇯🇵 Japan

Gelanceerd Jun 23, 2025 vanaf Vandenberg Space Force Base

Loading…

Volgende Passages (komende 24 uur)

TLE

VersSource: Space-Track

Epoch: Sep 14, 2026, 13:27 UTC

1 64591U 25135BR  26257.56107951  .00003057  00000-0  26506-3 0  9994
2 64591  97.7770  12.3079 0006109  42.8537 317.3160 14.97816296 67334

Volg AE2A in realtime met AllMySat

Download on the App Store